Home > Weather > Utsunomiya > Past weeks

Flag for Japan Weather for the Past 2 Weeks in Utsunomiya, Japan

Now
67 °F

Mild.


Feels Like: 67 °F
Forecast: 55 / 73 °F
Wind: 5 mph from Southwest

Location: Mito

Current Time: May 3, 2016 at 8:57:45 AM

Latest Report: May 3, 2016 at 8:00 AM


Visibility: N/A

Pressure: 30.13 "Hg

Humidity: 75%

Dew Point: 59 °F

Location of UtsunomiyaLocation

Historic Weather in Utsunomiya — Graph

°F

Utsunomiya Temperature Yesterday

Maximum temperature yesterday: 65 °F (at 3:00 PM)
Minimum temperature yesterday: 52 °F (at 2:00 AM)
Average temperature yesterday: 57 °F

High & Low Weather Summary for the Past Weeks

 TemperatureHumidityPressure
High73 °F (Apr 26, 1:00 PM)97% (Apr 22, 2:00 AM)30.30 "Hg (Apr 22, 2:00 AM)
Low44 °F (Apr 30, 5:00 AM)36% (Apr 20, 3:00 PM)29.29 "Hg (Apr 29, 1:00 AM)
Average57 °F79%29.97 "Hg
* Reported Apr 18 5:00 AM — May 3 5:00 AM, Utsunomiya, Weather by CustomWeather, © 2016

Note: Actual official high and low records may vary slightly from our data, if they occured in-between our weather recording intervals... More about our weather records

Advertising

Utsunomiya Weather History for the Previous 24 Hours

Scroll right to see more
 ConditionsComfort  
Time TempWeatherWind HumidityBarometerVisibility
5:00 AM
Tue, May 3
56 °FCool.3 mph91%30.14 "HgN/A
4:00 AM56 °FCool.2 mph91%30.14 "HgN/A
3:00 AM57 °FOvercast.2 mph89%30.15 "Hg6 mi
2:00 AM57 °FCool.1 mph89%30.16 "HgN/A
1:00 AM58 °FCool.2 mph86%30.16 "HgN/A
12:00 AM58 °FCool.2 mph84%30.17 "HgN/A
11:00 PM
Mon, May 2
58 °FCool.2 mph83%30.19 "HgN/A
10:00 PM59 °FCool.1 mph80%30.21 "HgN/A
9:00 PM59 °FOvercast.2 mph80%30.21 "Hg9 mi
8:00 PM59 °FCool.3 mph78%30.20 "HgN/A
7:00 PM59 °FCool.5 mph75%30.18 "HgN/A
6:00 PM60 °FCool.3 mph71%30.16 "HgN/A
5:00 PM61 °FCool.5 mph69%30.16 "HgN/A
4:00 PM63 °FMild.6 mph58%30.15 "HgN/A
3:00 PM65 °FOvercast.6 mph59%30.15 "Hg9 mi
1:00 PM65 °FMild.3 mph60%30.17 "HgN/A
10:00 AM59 °FCool.3 mph70%30.19 "HgN/A
9:00 AM56 °FOvercast.5 mph76%30.19 "Hg12 mi
8:00 AM56 °FCool.6 mph74%30.20 "HgN/A
Weather by CustomWeather, © 2016

See weather overviewHow to use our weather pages